This demonstration page uses our WeatherBlox Daily Observations layout. Learn more.

Left ArrowRight Arrow

38.20091, -84.87328

Hourly Observations for February 10, 2020

Temp ( °F °C ) Dew Point ( °F °C ) Humidity (%) Winds ( mph kmh ) Pressure ( in mb ) Visibility ( mi km ) Precip ( " mm )
12:53 am 00:53 Cloudy with Light Rain 48 8.9 41 5 77 77 S 16 26 30.05 1018 10 16 0.03 0.76
1:53 am 01:53 Cloudy with Light Rain 48 8.9 43 6.1 83 83 S 20 31 30.05 1018 10 16 0.03 0.76
2:53 am 02:53 Cloudy 49 9.4 43 6.1 80 80 SSW 16 26 30.04 1017 10 16 0.01 0.25
3:53 am 03:53 Cloudy with Rain 49 9.4 44 6.7 83 83 S 18 30 30.04 1017 6 10 0.06 1.52
4:53 am 04:53 Cloudy with Light Rain 49 9.4 45 7.2 86 86 S 13 20 30.02 1017 10 16 0.04 1.02
5:16 am 05:16 Cloudy with Rain 49 9.4 45 7.2 86 86 SSW 14 22 30.03 1017 7 11 0.02 0.51
5:31 am 05:31 Cloudy with Rain 49 9.4 46 7.8 90 90 SSW 10 17 30.05 1018 5 8 0.05 1.27
5:53 am 05:53 Cloudy 49 9.4 46 7.8 90 90 SSW 13 20 30.03 1017 10 16 0.06 1.52
6:02 am 06:02 Cloudy 49 9.4 46 7.8 90 90 SSW 13 20 30.04 1017 10 16 0.00 0.00
6:53 am 06:53 Cloudy with Light Rain 49 9.4 46 7.8 90 90 SSW 13 20 30.03 1017 10 16 0.00 0.00
7:16 am 07:16 Cloudy with Light Rain 49 9.4 46 7.8 90 90 SW 10 17 30.04 1017 10 16 0.02 0.51
7:53 am 07:53 Cloudy with Rain 49 9.4 47 8.3 93 93 SW 8 13 30.06 1018 3 5 0.11 2.79
8:00 am 08:00 Cloudy with Rain 49 9.4 47 8.3 93 93 SW 8 13 30.07 1018 3 5 0.02 0.51
8:08 am 08:08 Cloudy with Rain 49 9.4 47 8.3 93 93 SSW 10 17 30.07 1018 3 5 0.04 1.02
8:11 am 08:11 Cloudy with Rain 49 9.4 47 8.3 93 93 SSW 10 17 30.06 1018 3 5 0.05 1.27
8:53 am 08:53 Cloudy with Light Rain 49 9.4 47 8.3 93 93 SSW 9 15 30.06 1018 7 11 0.09 2.29
9:19 am 09:19 Cloudy with Light Rain 49 9.4 47 8.3 93 93 SSW 9 15 30.08 1019 6 10 0.02 0.51
9:38 am 09:38 Cloudy with Light Rain 49 9.4 47 8.3 93 93 SSW 7 11 30.08 1019 5 8 0.03 0.76
9:53 am 09:53 Cloudy with Light Rain 49 9.4 47 8.3 93 93 SSW 6 9 30.07 1018 4 6 0.05 1.27
10:53 am 10:53 Cloudy with Light Rain 50 10 48 8.9 93 93 SSW 9 15 30.07 1018 8 13 0.04 1.02
11:53 am 11:53 Cloudy with Light Rain 50 10 49 9.4 96 96 SSW 5 7 30.06 1018 10 16 0.01 0.25
12:53 pm 12:53 Cloudy with Light Rain 51 10.6 49 9.4 92 92 S 7 11 30.04 1017 4 6 0.01 0.25
1:34 pm 13:34 Cloudy with Mist and Fog 51 10.6 49 9.4 92 92 SSW 5 7 30.03 1017 5 8 0.01 0.25
1:50 pm 13:50 Cloudy with Mist and Fog 52 11 50 10 94 94 SSW 7 11 30.03 1017 4 6 0.01 0.25
1:53 pm 13:53 Cloudy with Mist and Fog 52 11.1 50 10 93 93 SSW 6 9 30.01 1016 4 6 0.01 0.25
2:08 pm 14:08 Cloudy with Mist and Fog 52 11.1 50 10 93 93 SSW 6 9 30.02 1016 3 4 0.00 0.00
2:18 pm 14:18 Cloudy with Mist and Fog 52 11.1 50 10 93 93 SW 7 11 30.03 1017 4 6 0.00 0.00
2:40 pm 14:40 Cloudy 52 11.1 50 10 93 93 SSW 6 9 30.01 1016 8 13 0.00 0.00
2:53 pm 14:53 Cloudy 52 11.1 50 10 93 93 SW 5 7 30.00 1016 10 16 0.00 0.00
3:53 pm 15:53 Cloudy 53 11.7 50 10 89 89 SW 5 7 29.99 1016 10 16 0.00 0.00
4:53 pm 16:53 Cloudy 52 11.1 51 10.6 97 97 SW 3 6 29.99 1016 8 13 0.00 0.00
5:34 pm 17:34 Cloudy with Mist and Fog 52 11.1 50 10 93 93 NW 7 11 30.02 1016 6 10 0.00 0.00
5:48 pm 17:48 Cloudy with Mist and Fog 50 10 48 9 94 94 NNW 7 11 30.02 1017 5 8 0.00 0.00
5:53 pm 17:53 Cloudy with Mist and Fog 50 10 48 8.9 93 93 NNW 8 13 30.01 1016 5 8 0.00 0.00
6:53 pm 18:53 Cloudy with Mist and Fog 46 7.8 44 6.7 93 93 N 9 15 30.03 1017 3 5 0.00 0.00
7:53 pm 19:53 Cloudy with Mist and Fog 44 6.7 42 5.6 93 93 N 7 11 30.04 1017 6 10 0.00 0.00
8:53 pm 20:53 Cloudy with Mist and Fog 43 6.1 42 5.6 97 97 N 5 7 30.06 1018 4 6 0.00 0.00
9:53 pm 21:53 Cloudy with Mist and Fog 43 6.1 41 5 93 93 NNW 6 9 30.07 1018 5 8 0.00 0.00
10:53 pm 22:53 Cloudy 42 5.6 40 4.4 92 92 N 7 11 30.03 1017 8 13 0.00 0.00
11:53 pm 23:53 Cloudy 41 5 40 4.4 96 96 N 6 9 30.05 1018 7 11 0.00 0.00

Powered by AerisWeather